Location: Erdweis
(48.5167°N, 15.3500°E)
Time: 13:06:29
(UTC+00:00)

USA 234 - Pass Details

Date: 20 January 2021
Orbit: 1100 x 1107 km, 123.0° (Epoch: 01 March)

Event Time Altitude Azimuth Distance (km) Brightness Sun altitude
Exits shadow 20:27:37 23° 288° (WNW) 2,172 5.2 -46.8°
Drops below altitude 10° 20:29:57 10° 299° (WNW) 2,965 6.1 -47.1°
Sets 20:32:33 0° 305° (NW) 3,927 6.9 -47.5°
